User: anonymous   Login
Location: Blanot
(47.1713°N, 4.2340°E)
Time: 11:12:01
(UTC+00:00)
Language:

Cosmos 2369 - Orbit

View from above orbital plane
View from above orbital plane
View from above satellite
View from above satellite

Ground track
Ground track

The orbit data is extracted from the following two-line orbital elements,

1 26069U 00006A   20270.71390970 -.00000143  00000-0 -50690-4 0  9990
2 26069  70.9988  10.3400 0013019 228.0868 131.9144 14.13417322 65329
Epoch (UTC): 26 September 2020 17:08:01
Eccentricity: 0.0013019
inclination: 70.9988°
perigee height: 838 km
apogee height: 857 km
right ascension of ascending node: 10.3400°
argument of perigee: 228.0868°
revolutions per day: 14.13417322
mean anomaly at epoch: 131.9144°
orbit number at epoch: 6532

The dashed part of the orbit path shows where the satellite is in the earth's shadow,  

DLR